{"data":{"norad_id":55603,"epoch":"2026-05-24T19:33:31.127040Z","epoch_age_seconds":98000,"freshness":"FRESH","line1":"1 55603U 23020AL  26144.81494360 -.00001108  00000+0 -30729-4 0  9994","line2":"2 55603  43.0009 284.1526 0001195 278.6472  81.4244 15.27582295180689","mean_motion":15.27582295,"eccentricity":0.0001195,"inclination_deg":43.0009,"raan_deg":284.1526,"arg_perigee_deg":278.6472,"mean_anomaly_deg":81.4244,"bstar":-3.0729e-5,"rev_number":18068,"period_min":94.266607089735,"perigee_km":482.22231307537,"apogee_km":483.8621349099,"semimajor_km":6861.1792239926,"source":"CELESTRAK","updated_at":"2026-05-25T13:38:17.841902Z"}}